This demonstration page uses our WeatherBlox Daily Observations layout. Learn more.

Left ArrowRight Arrow

39.01783, -85.05884

Hourly Observations for October 26, 2018

Temp ( °F °C ) Dew Point ( °F °C ) Humidity (%) Winds ( mph kmh ) Pressure ( in mb ) Visibility ( mi km ) Precip ( " mm )
12:52 am 00:52 Cloudy 48 8.9 38 3.3 68 68 E 8 13 29.97 1015 10 16 N/A
1:52 am 01:52 Cloudy 48 8.9 38 3.3 68 68 E 8 13 29.94 1014 10 16 N/A
2:52 am 02:52 Cloudy 47 8.3 38 3.3 71 71 E 9 15 29.91 1013 10 16 N/A
3:52 am 03:52 Cloudy 47 8.3 37 2.8 69 69 E 7 11 29.88 1012 10 16 N/A
4:52 am 04:52 Cloudy 47 8.3 38 3.3 71 71 E 12 19 29.84 1011 10 16 N/A
5:52 am 05:52 Cloudy with Light Rain 47 8.3 39 3.9 74 74 NE 10 17 29.81 1010 10 16 N/A
6:52 am 06:52 Cloudy with Light Rain 45 7.2 42 5.6 90 90 SSE 3 6 29.83 1010 10 16 0.02 0.51
7:52 am 07:52 Cloudy 46 7.8 41 5 83 83 NE 7 11 29.81 1010 10 16 N/A
8:52 am 08:52 Cloudy 46 7.8 41 5 83 83 E 5 7 29.81 1010 10 16 N/A
9:52 am 09:52 Cloudy 47 8.3 41 5 80 80 E 9 15 29.79 1009 10 16 N/A
10:52 am 10:52 Cloudy 48 8.9 43 6.1 83 83 ENE 8 13 29.76 1008 10 16 N/A
11:23 am 11:23 Cloudy 48 8.9 43 6.1 83 83 NE 9 15 29.77 1008 7 11 N/A
11:50 am 11:50 Cloudy with Drizzle 46 8 45 7 93 93 NE 10 17 29.74 1007 3 5 N/A
11:52 am 11:52 Cloudy with Drizzle 47 8.3 45 7.2 93 93 NE 10 17 29.75 1007 3 5 N/A
11:56 am 11:56 Cloudy with Drizzle 47 8.3 45 7.2 93 93 NE 12 19 29.74 1007 2 3 N/A
12:29 pm 12:29 Cloudy with Light Rain 47 8.3 46 7.8 97 97 NE 9 15 29.74 1007 2 2 0.01 0.25
12:42 pm 12:42 Cloudy with Mist and Fog 47 8.3 46 7.8 97 97 ENE 9 15 29.74 1007 2 2 0.02 0.51
12:52 pm 12:52 Cloudy with Drizzle 47 8.3 47 8.3 100 100 ENE 10 17 29.72 1006 2 2 0.02 0.51
12:55 pm 12:55 Cloudy with Drizzle 47 8.3 47 8.3 100 100 ENE 12 19 29.71 1006 1 2 N/A
1:15 pm 13:15 Cloudy with Drizzle 47 8.3 47 8.3 100 100 NE 10 17 29.71 1006 1 1 0.01 0.25
1:52 pm 13:52 Cloudy with Drizzle 48 9 N/A N/A ENE 10 17 29.68 1005 1 1 0.02 0.51
2:52 pm 14:52 Cloudy with Light Rain 49 9.4 48 8.9 97 97 NE 10 17 29.66 1004 1 1 0.01 0.25
3:52 pm 15:52 Cloudy with Drizzle 49 9.4 49 9.4 100 100 ENE 9 15 29.64 1004 1 1 N/A
4:52 pm 16:52 Cloudy with Light Rain 49 9.4 49 9.4 100 100 NNE 7 11 29.63 1004 1 1 0.01 0.25
5:20 pm 17:20 Cloudy with Light Rain 49 9.4 49 9.4 100 100 NNE 7 11 29.65 1004 1 2 0.05 1.27
5:43 pm 17:43 Cloudy with Light Rain 49 9.4 49 9.4 100 100 NNE 7 11 29.65 1004 0 0 0.06 1.52
5:52 pm 17:52 Cloudy with Light Rain 49 9.4 49 9.4 100 100 NNE 7 11 29.63 1003 0 0 0.07 1.78
6:19 pm 18:19 Cloudy with Rain 49 9.4 49 9.4 100 100 NE 8 13 29.62 1003 1 2 0.01 0.25
6:36 pm 18:36 Cloudy with Light Rain 49 9.4 49 9.4 100 100 NE 9 15 29.65 1004 1 2 0.04 1.02
6:52 pm 18:52 Cloudy with Rain 49 9.4 49 9.4 100 100 NE 8 13 29.63 1004 2 2 0.07 1.78
7:52 pm 19:52 Cloudy with Rain 48 8.9 48 8.9 100 100 NNE 9 15 29.64 1004 2 2 0.09 2.29
8:52 pm 20:52 Cloudy with Light Rain 48 8.9 48 8.9 100 100 N 9 15 29.63 1003 5 8 0.04 1.02
9:52 pm 21:52 Cloudy with Drizzle 48 8.9 47 8.3 96 96 N 8 13 29.63 1004 5 8 N/A
10:19 pm 22:19 Cloudy with Drizzle 47 8.3 47 8.3 100 100 N 10 17 29.65 1004 5 8 N/A
10:52 pm 22:52 Cloudy with Drizzle 47 8.3 47 8.3 100 100 N 9 15 29.64 1004 4 6 0.01 0.25
11:52 pm 23:52 Cloudy with Drizzle 47 8.3 47 8.3 100 100 N 7 11 29.63 1004 5 8 N/A

Powered by AerisWeather